Time,TemperatureF,DewpointF,PressureIn,WindDirection,WindDirectionDegrees,WindSpeedMPH,WindSpeedGustMPH,Humidity,HourlyPrecipIn,Conditions,Clouds,dailyrainin,SoftwareType,DateUTC
2013-03-20 00:05:00,52.1,50.1,29.73,NNE,17,0.0,0.0,93,0.00,,,0.00,Wunderground v.1.15,2013-03-20 07:05:00,
2013-03-20 00:10:00,52.0,50.0,29.72,NNE,17,0.0,0.0,93,0.00,,,0.00,Wunderground v.1.15,2013-03-20 07:10:00,
2013-03-20 00:16:00,51.9,49.9,29.72,NNE,17,0.0,0.0,93,0.00,,,0.00,Wunderground v.1.15,2013-03-20 07:16:00,
2013-03-20 00:21:00,51.8,49.8,29.72,NNE,17,0.0,0.0,93,0.00,,,0.00,Wunderground v.1.15,2013-03-20 07:21:00,
2013-03-20 00:27:00,51.7,49.7,29.72,NNE,17,0.0,0.0,93,0.00,,,0.00,Wunderground v.1.15,2013-03-20 07:27:00,
2013-03-20 00:33:00,51.7,49.7,29.71,NNE,17,0.0,0.0,93,0.00,,,0.00,Wunderground v.1.15,2013-03-20 07:33:00,
2013-03-20 00:39:00,51.6,49.6,29.70,NNE,17,0.0,2.0,93,0.00,,,0.00,Wunderground v.1.15,2013-03-20 07:39:00,
2013-03-20 00:44:00,51.6,49.6,29.70,NNE,17,0.0,0.0,93,0.00,,,0.00,Wunderground v.1.15,2013-03-20 07:44:00,
2013-03-20 00:49:00,51.6,49.9,29.70,NNE,17,0.0,0.0,94,0.00,,,0.00,Wunderground v.1.15,2013-03-20 07:49:00,
2013-03-20 00:55:00,51.8,50.1,29.70,NNE,17,0.0,0.0,94,0.00,,,0.00,Wunderground v.1.15,2013-03-20 07:55:00,
2013-03-20 01:00:00,51.8,50.1,29.71,NNE,17,0.0,0.0,94,0.00,,,0.00,Wunderground v.1.15,2013-03-20 08:00:00,
2013-03-20 01:06:00,51.7,50.0,29.70,NE,46,0.0,1.0,94,0.00,,,0.00,Wunderground v.1.15,2013-03-20 08:06:00,
2013-03-20 01:12:00,51.6,49.9,29.70,ENE,61,0.0,0.0,94,0.00,,,0.00,Wunderground v.1.15,2013-03-20 08:12:00,
2013-03-20 01:18:00,51.6,49.9,29.70,ENE,61,0.0,0.0,94,0.00,,,0.00,Wunderground v.1.15,2013-03-20 08:18:00,
2013-03-20 01:24:00,51.5,49.8,29.70,ENE,61,0.0,0.0,94,0.00,,,0.00,Wunderground v.1.15,2013-03-20 08:24:00,
2013-03-20 01:30:00,51.3,49.3,29.71,SSE,165,0.0,0.0,93,0.00,,,0.00,Wunderground v.1.15,2013-03-20 08:30:00,
2013-03-20 01:36:00,51.1,49.1,29.71,SSE,165,0.0,0.0,93,0.00,,,0.00,Wunderground v.1.15,2013-03-20 08:36:00,
2013-03-20 01:41:00,50.9,48.9,29.70,SSE,165,0.0,0.0,93,0.00,,,0.00,Wunderground v.1.15,2013-03-20 08:41:00,
2013-03-20 01:47:00,50.7,48.7,29.70,NNW,329,0.0,3.0,93,0.00,,,0.00,Wunderground v.1.15,2013-03-20 08:47:00,
2013-03-20 01:52:00,50.7,49.0,29.71,NW,315,1.0,1.0,94,0.00,,,0.00,Wunderground v.1.15,2013-03-20 08:52:00,
2013-03-20 01:58:00,50.7,49.0,29.70,NW,315,0.0,1.0,94,0.00,,,0.00,Wunderground v.1.15,2013-03-20 08:58:00,
2013-03-20 02:03:00,50.7,49.0,29.70,NW,315,0.0,0.0,94,0.00,,,0.00,Wunderground v.1.15,2013-03-20 09:03:00,
2013-03-20 02:09:00,50.7,49.0,29.70,NW,315,0.0,0.0,94,0.00,,,0.00,Wunderground v.1.15,2013-03-20 09:09:00,
2013-03-20 02:14:00,50.5,48.8,29.70,North,350,0.0,1.0,94,0.00,,,0.00,Wunderground v.1.15,2013-03-20 09:14:00,
2013-03-20 02:20:00,50.3,48.6,29.70,North,349,1.0,1.0,94,0.00,,,0.00,Wunderground v.1.15,2013-03-20 09:20:00,
2013-03-20 02:26:00,50.2,48.5,29.70,North,360,1.0,2.0,94,0.00,,,0.00,Wunderground v.1.15,2013-03-20 09:26:00,
2013-03-20 02:32:00,50.2,48.5,29.70,North,355,1.0,1.0,94,0.00,,,0.00,Wunderground v.1.15,2013-03-20 09:32:00,
2013-03-20 02:38:00,50.2,48.5,29.70,North,355,0.0,1.0,94,0.00,,,0.00,Wunderground v.1.15,2013-03-20 09:38:00,
2013-03-20 02:44:00,50.1,48.4,29.70,North,355,0.0,0.0,94,0.00,,,0.00,Wunderground v.1.15,2013-03-20 09:44:00,
2013-03-20 02:50:00,49.9,48.2,29.70,NNE,19,0.0,0.0,94,0.00,,,0.00,Wunderground v.1.15,2013-03-20 09:50:00,
2013-03-20 02:56:00,49.8,48.1,29.70,NNE,13,0.0,1.0,94,0.00,,,0.00,Wunderground v.1.15,2013-03-20 09:56:00,
2013-03-20 03:01:00,49.5,47.8,29.70,NNW,340,1.0,1.0,94,0.00,,,0.00,Wunderground v.1.15,2013-03-20 10:01:00,
2013-03-20 03:07:00,49.3,47.6,29.70,NNW,343,1.0,1.0,94,0.00,,,0.00,Wunderground v.1.15,2013-03-20 10:07:00,
2013-03-20 03:12:00,49.1,47.4,29.69,NNW,343,0.0,0.0,94,0.00,,,0.00,Wunderground v.1.15,2013-03-20 10:12:00,
2013-03-20 03:17:00,49.0,47.3,29.69,NNW,343,0.0,0.0,94,0.00,,,0.00,Wunderground v.1.15,2013-03-20 10:17:00,
2013-03-20 03:23:00,48.9,47.2,29.69,NNW,343,0.0,1.0,94,0.00,,,0.00,Wunderground v.1.15,2013-03-20 10:23:00,
2013-03-20 03:28:00,48.8,47.4,29.68,NNW,343,0.0,1.0,95,0.00,,,0.00,Wunderground v.1.15,2013-03-20 10:28:00,
2013-03-20 03:34:00,48.7,47.3,29.68,NNW,343,0.0,0.0,95,0.00,,,0.00,Wunderground v.1.15,2013-03-20 10:34:00,
2013-03-20 03:40:00,48.6,47.0,29.68,NNW,343,0.0,0.0,94,0.00,,,0.00,Wunderground v.1.15,2013-03-20 10:40:00,
2013-03-20 03:45:00,48.3,46.7,29.69,NNW,343,0.0,0.0,94,0.00,,,0.00,Wunderground v.1.15,2013-03-20 10:45:00,
2013-03-20 03:51:00,48.1,46.5,29.69,North,355,0.0,0.0,94,0.00,,,0.00,Wunderground v.1.15,2013-03-20 10:51:00,
2013-03-20 03:56:00,48.2,46.8,29.69,East,84,0.0,1.0,95,0.00,,,0.00,Wunderground v.1.15,2013-03-20 10:56:00,
2013-03-20 04:02:00,48.0,46.6,29.68,North,9,0.0,1.0,95,0.00,,,0.00,Wunderground v.1.15,2013-03-20 11:02:00,
2013-03-20 04:08:00,47.8,46.4,29.68,North,5,1.0,2.0,95,0.00,,,0.00,Wunderground v.1.15,2013-03-20 11:08:00,
2013-03-20 04:14:00,47.9,46.5,29.67,North,11,1.0,1.0,95,0.00,,,0.00,Wunderground v.1.15,2013-03-20 11:14:00,
2013-03-20 04:20:00,47.9,46.5,29.68,NNE,15,0.0,0.0,95,0.00,,,0.00,Wunderground v.1.15,2013-03-20 11:20:00,
2013-03-20 04:25:00,47.9,46.5,29.67,NNE,15,0.0,0.0,95,0.00,,,0.00,Wunderground v.1.15,2013-03-20 11:25:00,
2013-03-20 04:30:00,47.8,46.4,29.68,NNE,15,0.0,0.0,95,0.00,,,0.00,Wunderground v.1.15,2013-03-20 11:30:00,
2013-03-20 04:36:00,47.9,46.5,29.68,NNE,15,0.0,0.0,95,0.00,,,0.00,Wunderground v.1.15,2013-03-20 11:36:00,
2013-03-20 04:42:00,47.8,46.4,29.68,NNE,15,0.0,0.0,95,0.00,,,0.00,Wunderground v.1.15,2013-03-20 11:42:00,
2013-03-20 04:47:00,47.8,46.4,29.68,NNE,15,0.0,0.0,95,0.00,,,0.00,Wunderground v.1.15,2013-03-20 11:47:00,
2013-03-20 04:53:00,47.8,46.4,29.68,NNE,15,0.0,0.0,95,0.00,,,0.00,Wunderground v.1.15,2013-03-20 11:53:00,
2013-03-20 04:59:00,47.7,46.3,29.68,NNE,15,0.0,0.0,95,0.00,,,0.00,Wunderground v.1.15,2013-03-20 11:59:00,
2013-03-20 05:05:00,47.5,46.1,29.68,NNE,15,0.0,0.0,95,0.00,,,0.00,Wunderground v.1.15,2013-03-20 12:05:00,
2013-03-20 05:11:00,47.5,46.1,29.67,NNE,13,0.0,0.0,95,0.00,,,0.00,Wunderground v.1.15,2013-03-20 12:11:00,
2013-03-20 05:17:00,47.5,46.4,29.68,NNE,13,0.0,0.0,96,0.00,,,0.00,Wunderground v.1.15,2013-03-20 12:17:00,
2013-03-20 05:23:00,47.6,46.5,29.68,NNE,13,0.0,0.0,96,0.00,,,0.00,Wunderground v.1.15,2013-03-20 12:23:00,
2013-03-20 05:28:00,47.7,46.6,29.69,NNE,13,0.0,0.0,96,0.00,,,0.00,Wunderground v.1.15,2013-03-20 12:28:00,
2013-03-20 05:34:00,47.7,46.6,29.68,NNE,13,0.0,0.0,96,0.00,,,0.00,Wunderground v.1.15,2013-03-20 12:34:00,
2013-03-20 05:40:00,47.8,46.7,29.67,NNE,13,0.0,0.0,96,0.00,,,0.00,Wunderground v.1.15,2013-03-20 12:40:00,
2013-03-20 05:45:00,47.9,46.8,29.67,NNE,13,0.0,0.0,96,0.00,,,0.00,Wunderground v.1.15,2013-03-20 12:45:00,
2013-03-20 05:51:00,47.9,46.8,29.67,NNE,13,0.0,0.0,96,0.00,,,0.00,Wunderground v.1.15,2013-03-20 12:51:00,
2013-03-20 05:57:00,47.8,46.7,29.67,NNE,13,0.0,0.0,96,0.00,,,0.00,Wunderground v.1.15,2013-03-20 12:57:00,
2013-03-20 06:03:00,47.8,46.7,29.68,North,5,0.0,1.0,96,0.00,,,0.00,Wunderground v.1.15,2013-03-20 13:03:00,
2013-03-20 06:09:00,47.8,46.7,29.68,North,5,0.0,1.0,96,0.00,,,0.00,Wunderground v.1.15,2013-03-20 13:09:00,
2013-03-20 06:14:00,47.8,46.7,29.68,North,5,0.0,0.0,96,0.00,,,0.00,Wunderground v.1.15,2013-03-20 13:14:00,
2013-03-20 06:20:00,47.8,46.7,29.69,North,5,0.0,0.0,96,0.00,,,0.00,Wunderground v.1.15,2013-03-20 13:20:00,
2013-03-20 06:25:00,47.8,46.7,29.69,North,5,0.0,0.0,96,0.00,,,0.00,Wunderground v.1.15,2013-03-20 13:25:00,
2013-03-20 06:30:00,47.7,46.6,29.70,North,5,0.0,0.0,96,0.00,,,0.00,Wunderground v.1.15,2013-03-20 13:30:00,
2013-03-20 06:35:00,47.6,46.5,29.70,North,5,0.0,0.0,96,0.00,,,0.00,Wunderground v.1.15,2013-03-20 13:35:00,
2013-03-20 06:41:00,47.7,46.6,29.70,North,5,0.0,0.0,96,0.00,,,0.00,Wunderground v.1.15,2013-03-20 13:41:00,
2013-03-20 06:47:00,47.6,46.5,29.70,North,5,0.0,0.0,96,0.00,,,0.00,Wunderground v.1.15,2013-03-20 13:47:00,
2013-03-20 06:52:00,47.5,46.4,29.70,North,5,0.0,0.0,96,0.00,,,0.00,Wunderground v.1.15,2013-03-20 13:52:00,
2013-03-20 06:57:00,47.4,46.3,29.69,North,5,0.0,0.0,96,0.00,,,0.00,Wunderground v.1.15,2013-03-20 13:57:00,
2013-03-20 07:02:00,47.5,46.4,29.69,North,5,0.0,0.0,96,0.00,,,0.00,Wunderground v.1.15,2013-03-20 14:02:00,
2013-03-20 07:07:00,47.7,46.6,29.69,ENE,59,0.0,0.0,96,0.00,,,0.00,Wunderground v.1.15,2013-03-20 14:07:00,
2013-03-20 07:13:00,47.6,46.5,29.69,ENE,59,0.0,0.0,96,0.00,,,0.00,Wunderground v.1.15,2013-03-20 14:13:00,
2013-03-20 07:18:00,47.4,46.3,29.70,NE,46,0.0,1.0,96,0.00,,,0.00,Wunderground v.1.15,2013-03-20 14:18:00,
2013-03-20 07:23:00,47.3,46.2,29.70,NNE,29,0.0,1.0,96,0.00,,,0.00,Wunderground v.1.15,2013-03-20 14:23:00,
2013-03-20 07:28:00,47.3,46.2,29.70,NNE,29,0.0,1.0,96,0.00,,,0.00,Wunderground v.1.15,2013-03-20 14:28:00,
2013-03-20 07:34:00,47.5,46.4,29.70,NNE,29,0.0,0.0,96,0.00,,,0.00,Wunderground v.1.15,2013-03-20 14:34:00,
2013-03-20 07:40:00,47.6,46.5,29.70,NNE,29,0.0,0.0,96,0.00,,,0.00,Wunderground v.1.15,2013-03-20 14:40:00,
2013-03-20 07:46:00,47.7,46.6,29.70,NNE,29,0.0,0.0,96,0.00,,,0.00,Wunderground v.1.15,2013-03-20 14:46:00,
2013-03-20 07:51:00,47.8,47.0,29.71,NNE,29,0.0,0.0,97,0.00,,,0.00,Wunderground v.1.15,2013-03-20 14:51:00,
2013-03-20 07:56:00,48.0,47.2,29.71,NNE,29,0.0,0.0,97,0.00,,,0.00,Wunderground v.1.15,2013-03-20 14:56:00,
2013-03-20 08:01:00,48.2,47.4,29.71,NNE,29,0.0,0.0,97,0.00,,,0.00,Wunderground v.1.15,2013-03-20 15:01:00,
2013-03-20 08:07:00,48.6,47.8,29.71,NNE,29,0.0,0.0,97,0.00,,,0.00,Wunderground v.1.15,2013-03-20 15:07:00,
2013-03-20 08:12:00,48.9,48.1,29.71,NNE,29,0.0,1.0,97,0.00,,,0.00,Wunderground v.1.15,2013-03-20 15:12:00,
2013-03-20 08:17:00,49.5,48.7,29.71,NNE,29,0.0,1.0,97,0.00,,,0.00,Wunderground v.1.15,2013-03-20 15:17:00,
2013-03-20 08:23:00,50.1,49.6,29.71,NNE,29,0.0,0.0,98,0.00,,,0.00,Wunderground v.1.15,2013-03-20 15:23:00,
2013-03-20 08:28:00,50.7,50.2,29.71,ENE,66,0.0,0.0,98,0.00,,,0.00,Wunderground v.1.15,2013-03-20 15:28:00,
2013-03-20 08:33:00,51.0,50.5,29.71,East,92,0.0,0.0,98,0.00,,,0.00,Wunderground v.1.15,2013-03-20 15:33:00,
2013-03-20 08:38:00,51.3,50.8,29.71,SE,135,0.0,0.0,98,0.00,,,0.00,Wunderground v.1.15,2013-03-20 15:38:00,
2013-03-20 08:43:00,51.5,51.0,29.71,SE,142,0.0,1.0,98,0.00,,,0.00,Wunderground v.1.15,2013-03-20 15:43:00,
2013-03-20 08:48:00,51.7,51.2,29.71,East,81,0.0,1.0,98,0.00,,,0.00,Wunderground v.1.15,2013-03-20 15:48:00,
2013-03-20 08:53:00,51.9,51.1,29.71,East,81,0.0,0.0,97,0.00,,,0.00,Wunderground v.1.15,2013-03-20 15:53:00,
2013-03-20 08:58:00,52.1,51.6,29.72,East,81,0.0,0.0,98,0.00,,,0.00,Wunderground v.1.15,2013-03-20 15:58:00,
2013-03-20 09:04:00,52.5,51.7,29.72,East,81,0.0,0.0,97,0.00,,,0.00,Wunderground v.1.15,2013-03-20 16:04:00,
2013-03-20 09:09:00,52.6,51.8,29.72,NE,38,0.0,1.0,97,0.00,,,0.00,Wunderground v.1.15,2013-03-20 16:09:00,
2013-03-20 09:15:00,52.7,51.6,29.72,NE,38,0.0,0.0,96,0.00,,,0.00,Wunderground v.1.15,2013-03-20 16:15:00,
2013-03-20 09:20:00,52.9,51.8,29.72,ESE,123,0.0,0.0,96,0.00,,,0.00,Wunderground v.1.15,2013-03-20 16:20:00,
2013-03-20 09:26:00,53.3,52.2,29.72,SE,139,0.0,0.0,96,0.00,,,0.00,Wunderground v.1.15,2013-03-20 16:26:00,
2013-03-20 09:31:00,53.6,52.2,29.72,SE,144,0.0,2.0,95,0.00,,,0.00,Wunderground v.1.15,2013-03-20 16:31:00,
2013-03-20 09:36:00,53.8,52.4,29.71,SE,144,0.0,2.0,95,0.00,,,0.00,Wunderground v.1.15,2013-03-20 16:36:00,
2013-03-20 09:42:00,54.3,52.6,29.71,SSE,152,0.0,0.0,94,0.00,,,0.00,Wunderground v.1.15,2013-03-20 16:42:00,
2013-03-20 09:48:00,54.8,52.5,29.71,SSE,156,0.0,1.0,92,0.00,,,0.00,Wunderground v.1.15,2013-03-20 16:48:00,
2013-03-20 09:54:00,55.4,52.8,29.71,South,173,0.0,1.0,91,0.00,,,0.00,Wunderground v.1.15,2013-03-20 16:54:00,
2013-03-20 09:59:00,55.9,53.0,29.72,SSW,204,1.0,2.0,90,0.00,,,0.00,Wunderground v.1.15,2013-03-20 16:59:00,
2013-03-20 10:04:00,56.3,53.1,29.72,SSW,202,1.0,1.0,89,0.00,,,0.00,Wunderground v.1.15,2013-03-20 17:04:00,
2013-03-20 10:10:00,56.9,53.4,29.71,SSW,194,0.0,0.0,88,0.00,,,0.00,Wunderground v.1.15,2013-03-20 17:10:00,
2013-03-20 10:15:00,57.3,53.1,29.71,South,180,0.0,2.0,86,0.00,,,0.00,Wunderground v.1.15,2013-03-20 17:15:00,
2013-03-20 10:20:00,57.7,53.2,29.72,South,183,1.0,1.0,85,0.00,,,0.00,Wunderground v.1.15,2013-03-20 17:20:00,
2013-03-20 10:25:00,57.9,52.8,29.72,SSE,161,2.0,4.0,83,0.00,,,0.00,Wunderground v.1.15,2013-03-20 17:25:00,
2013-03-20 10:30:00,58.3,52.8,29.72,SW,217,2.0,2.0,82,0.00,,,0.00,Wunderground v.1.15,2013-03-20 17:30:00,
2013-03-20 10:36:00,58.9,53.4,29.72,SW,234,2.0,4.0,82,0.00,,,0.00,Wunderground v.1.15,2013-03-20 17:36:00,
2013-03-20 10:41:00,59.4,53.6,29.72,SW,217,2.0,2.0,81,0.00,,,0.00,Wunderground v.1.15,2013-03-20 17:41:00,
2013-03-20 10:46:00,60.0,54.2,29.73,SSW,208,2.0,3.0,81,0.00,,,0.00,Wunderground v.1.15,2013-03-20 17:46:00,
2013-03-20 10:52:00,60.6,54.0,29.72,SSW,196,3.0,5.0,79,0.00,,,0.00,Wunderground v.1.15,2013-03-20 17:52:00,
2013-03-20 10:58:00,60.9,54.3,29.73,SSW,193,3.0,5.0,79,0.00,,,0.00,Wunderground v.1.15,2013-03-20 17:58:00,
2013-03-20 11:03:00,61.1,54.2,29.72,SSW,205,3.0,3.0,78,0.00,,,0.00,Wunderground v.1.15,2013-03-20 18:03:00,
2013-03-20 11:08:00,61.5,54.2,29.72,South,188,3.0,6.0,77,0.00,,,0.00,Wunderground v.1.15,2013-03-20 18:08:00,
2013-03-20 11:13:00,61.7,54.4,29.72,SSW,213,3.0,3.0,77,0.00,,,0.00,Wunderground v.1.15,2013-03-20 18:13:00,
2013-03-20 11:18:00,62.0,54.3,29.72,SW,232,3.0,5.0,76,0.00,,,0.00,Wunderground v.1.15,2013-03-20 18:18:00,
2013-03-20 11:23:00,62.4,54.4,29.72,SW,217,3.0,5.0,75,0.00,,,0.00,Wunderground v.1.15,2013-03-20 18:23:00,
2013-03-20 11:29:00,62.8,54.8,29.72,SSW,201,3.0,6.0,75,0.00,,,0.00,Wunderground v.1.15,2013-03-20 18:29:00,
2013-03-20 11:34:00,63.1,55.0,29.72,SW,223,3.0,5.0,75,0.00,,,0.00,Wunderground v.1.15,2013-03-20 18:34:00,
2013-03-20 11:39:00,63.2,54.8,29.71,West,259,3.0,6.0,74,0.00,,,0.00,Wunderground v.1.15,2013-03-20 18:39:00,
2013-03-20 11:44:00,63.5,55.4,29.71,SW,229,4.0,6.0,75,0.00,,,0.00,Wunderground v.1.15,2013-03-20 18:44:00,
2013-03-20 11:50:00,63.8,54.6,29.70,SW,223,2.0,4.0,72,0.00,,,0.00,Wunderground v.1.15,2013-03-20 18:50:00,
2013-03-20 11:55:00,64.0,54.4,29.70,WSW,254,3.0,5.0,71,0.00,,,0.00,Wunderground v.1.15,2013-03-20 18:55:00,
2013-03-20 12:00:00,64.6,54.6,29.70,WNW,282,2.0,4.0,70,0.00,,,0.00,Wunderground v.1.15,2013-03-20 19:00:00,
2013-03-20 12:05:00,65.3,54.5,29.69,South,188,2.0,4.0,68,0.00,,,0.00,Wunderground v.1.15,2013-03-20 19:05:00,
2013-03-20 12:10:00,65.9,55.4,29.70,South,180,2.0,4.0,69,0.00,,,0.00,Wunderground v.1.15,2013-03-20 19:10:00,
2013-03-20 12:16:00,66.4,55.1,29.70,SW,215,2.0,7.0,67,0.00,,,0.00,Wunderground v.1.15,2013-03-20 19:16:00,
2013-03-20 12:22:00,66.9,55.6,29.70,SW,231,3.0,3.0,67,0.00,,,0.00,Wunderground v.1.15,2013-03-20 19:22:00,
2013-03-20 12:27:00,67.2,55.5,29.70,WSW,248,3.0,5.0,66,0.00,,,0.00,Wunderground v.1.15,2013-03-20 19:27:00,
2013-03-20 12:32:00,67.6,55.4,29.69,WSW,247,3.0,3.0,65,0.00,,,0.00,Wunderground v.1.15,2013-03-20 19:32:00,
2013-03-20 12:37:00,68.1,54.6,29.69,SW,223,3.0,4.0,62,0.00,,,0.00,Wunderground v.1.15,2013-03-20 19:37:00,
2013-03-20 12:42:00,68.6,55.1,29.69,West,278,3.0,4.0,62,0.00,,,0.00,Wunderground v.1.15,2013-03-20 19:42:00,
2013-03-20 12:47:00,68.8,55.7,29.68,South,184,2.0,5.0,63,0.00,,,0.00,Wunderground v.1.15,2013-03-20 19:47:00,
2013-03-20 12:53:00,68.6,54.6,29.68,South,190,2.0,3.0,61,0.00,,,0.00,Wunderground v.1.15,2013-03-20 19:53:00,
2013-03-20 12:59:00,68.6,56.4,29.68,SW,223,2.0,6.0,65,0.00,,,0.00,Wunderground v.1.15,2013-03-20 19:59:00,
2013-03-20 13:05:00,68.8,55.2,29.68,SSE,157,2.0,4.0,62,0.00,,,0.00,Wunderground v.1.15,2013-03-20 20:05:00,
2013-03-20 13:10:00,68.9,55.3,29.68,WSW,244,3.0,3.0,62,0.00,,,0.00,Wunderground v.1.15,2013-03-20 20:10:00,
2013-03-20 13:16:00,69.0,55.0,29.68,West,272,4.0,6.0,61,0.00,,,0.00,Wunderground v.1.15,2013-03-20 20:16:00,
2013-03-20 13:21:00,69.2,54.7,29.68,SW,233,4.0,6.0,60,0.00,,,0.00,Wunderground v.1.15,2013-03-20 20:21:00,
2013-03-20 13:27:00,69.1,55.5,29.67,WSW,255,5.0,9.0,62,0.00,,,0.00,Wunderground v.1.15,2013-03-20 20:27:00,
2013-03-20 13:33:00,68.9,54.9,29.67,West,268,5.0,5.0,61,0.00,,,0.00,Wunderground v.1.15,2013-03-20 20:33:00,
2013-03-20 13:39:00,68.7,54.3,29.67,SSW,213,6.0,8.0,60,0.00,,,0.00,Wunderground v.1.15,2013-03-20 20:39:00,
2013-03-20 13:44:00,69.0,54.5,29.67,SW,223,5.0,11.0,60,0.00,,,0.00,Wunderground v.1.15,2013-03-20 20:44:00,
2013-03-20 13:49:00,68.6,54.6,29.67,SSW,207,6.0,12.0,61,0.00,,,0.00,Wunderground v.1.15,2013-03-20 20:49:00,
2013-03-20 13:55:00,68.2,54.2,29.67,SW,231,6.0,10.0,61,0.00,,,0.00,Wunderground v.1.15,2013-03-20 20:55:00,
2013-03-20 14:01:00,67.5,54.0,29.67,SW,232,7.0,7.0,62,0.00,,,0.00,Wunderground v.1.15,2013-03-20 21:01:00,
2013-03-20 14:07:00,67.5,54.5,29.67,SW,221,6.0,7.0,63,0.00,,,0.00,Wunderground v.1.15,2013-03-20 21:07:00,
2013-03-20 14:13:00,67.8,54.7,29.67,SSW,204,5.0,7.0,63,0.00,,,0.00,Wunderground v.1.15,2013-03-20 21:13:00,
2013-03-20 14:19:00,67.8,53.9,29.66,SW,217,6.0,11.0,61,0.00,,,0.00,Wunderground v.1.15,2013-03-20 21:19:00,
2013-03-20 14:24:00,67.6,53.7,29.66,SW,222,6.0,7.0,61,0.00,,,0.00,Wunderground v.1.15,2013-03-20 21:24:00,
2013-03-20 14:29:00,67.4,53.5,29.66,SSW,200,6.0,10.0,61,0.00,,,0.00,Wunderground v.1.15,2013-03-20 21:29:00,
2013-03-20 14:35:00,67.8,54.7,29.66,SW,216,5.0,7.0,63,0.00,,,0.00,Wunderground v.1.15,2013-03-20 21:35:00,
2013-03-20 14:41:00,68.2,54.7,29.65,SW,221,5.0,5.0,62,0.00,,,0.00,Wunderground v.1.15,2013-03-20 21:41:00,
2013-03-20 14:47:00,68.1,53.7,29.65,SW,216,4.0,10.0,60,0.00,,,0.00,Wunderground v.1.15,2013-03-20 21:47:00,
2013-03-20 14:53:00,68.1,52.8,29.65,West,269,6.0,13.0,58,0.00,,,0.00,Wunderground v.1.15,2013-03-20 21:53:00,
2013-03-20 14:58:00,68.3,52.5,29.64,West,263,6.0,13.0,57,0.00,,,0.00,Wunderground v.1.15,2013-03-20 21:58:00,
2013-03-20 15:04:00,68.7,52.4,29.64,WSW,240,4.0,7.0,56,0.00,,,0.00,Wunderground v.1.15,2013-03-20 22:04:00,
2013-03-20 15:09:00,69.0,51.7,29.64,WSW,250,5.0,7.0,54,0.00,,,0.00,Wunderground v.1.15,2013-03-20 22:09:00,
2013-03-20 15:14:00,69.0,52.2,29.64,West,262,5.0,7.0,55,0.00,,,0.00,Wunderground v.1.15,2013-03-20 22:14:00,
2013-03-20 15:19:00,68.9,51.6,29.63,WSW,255,5.0,7.0,54,0.00,,,0.00,Wunderground v.1.15,2013-03-20 22:19:00,
2013-03-20 15:24:00,68.6,51.8,29.63,SW,236,5.0,8.0,55,0.00,,,0.00,Wunderground v.1.15,2013-03-20 22:24:00,
2013-03-20 15:29:00,68.4,52.6,29.63,WSW,257,6.0,6.0,57,0.00,,,0.00,Wunderground v.1.15,2013-03-20 22:29:00,
2013-03-20 15:35:00,68.6,52.3,29.64,SW,222,7.0,9.0,56,0.00,,,0.00,Wunderground v.1.15,2013-03-20 22:35:00,
2013-03-20 15:40:00,68.6,52.3,29.64,SW,228,6.0,6.0,56,0.00,,,0.00,Wunderground v.1.15,2013-03-20 22:40:00,
2013-03-20 15:46:00,68.6,52.3,29.64,SW,229,6.0,12.0,56,0.00,,,0.00,Wunderground v.1.15,2013-03-20 22:46:00,
2013-03-20 15:52:00,68.0,52.2,29.64,SW,223,5.0,7.0,57,0.00,,,0.00,Wunderground v.1.15,2013-03-20 22:52:00,
2013-03-20 15:57:00,67.7,52.9,29.64,SW,222,6.0,9.0,59,0.00,,,0.00,Wunderground v.1.15,2013-03-20 22:57:00,
2013-03-20 16:02:00,68.0,53.1,29.63,WSW,243,6.0,7.0,59,0.00,,,0.00,Wunderground v.1.15,2013-03-20 23:02:00,
2013-03-20 16:08:00,68.0,52.7,29.62,West,259,5.0,7.0,58,0.00,,,0.00,Wunderground v.1.15,2013-03-20 23:08:00,
2013-03-20 16:13:00,67.9,53.0,29.62,WSW,250,5.0,6.0,59,0.00,,,0.00,Wunderground v.1.15,2013-03-20 23:13:00,
2013-03-20 16:19:00,68.0,52.7,29.63,WSW,249,4.0,7.0,58,0.00,,,0.00,Wunderground v.1.15,2013-03-20 23:19:00,
2013-03-20 16:24:00,68.0,53.1,29.62,SW,234,4.0,5.0,59,0.00,,,0.00,Wunderground v.1.15,2013-03-20 23:24:00,
2013-03-20 16:30:00,68.2,52.9,29.62,West,276,4.0,4.0,58,0.00,,,0.00,Wunderground v.1.15,2013-03-20 23:30:00,
2013-03-20 16:35:00,68.4,53.0,29.61,WSW,246,3.0,7.0,58,0.00,,,0.00,Wunderground v.1.15,2013-03-20 23:35:00,
2013-03-20 16:40:00,68.2,52.9,29.61,West,268,4.0,4.0,58,0.00,,,0.00,Wunderground v.1.15,2013-03-20 23:40:00,
2013-03-20 16:46:00,67.6,52.8,29.61,WSW,258,6.0,8.0,59,0.00,,,0.00,Wunderground v.1.15,2013-03-20 23:46:00,
2013-03-20 16:52:00,67.2,52.4,29.61,West,260,5.0,6.0,59,0.00,,,0.00,Wunderground v.1.15,2013-03-20 23:52:00,
2013-03-20 16:57:00,67.1,52.7,29.61,WSW,244,4.0,6.0,60,0.00,,,0.00,Wunderground v.1.15,2013-03-20 23:57:00,
2013-03-20 17:03:00,67.2,52.8,29.61,West,259,4.0,4.0,60,0.00,,,0.00,Wunderground v.1.15,2013-03-21 00:03:00,
2013-03-20 17:08:00,67.5,53.1,29.61,WSW,258,3.0,9.0,60,0.00,,,0.00,Wunderground v.1.15,2013-03-21 00:08:00,
2013-03-20 17:13:00,67.4,52.6,29.61,SW,217,4.0,7.0,59,0.00,,,0.00,Wunderground v.1.15,2013-03-21 00:13:00,
2013-03-20 17:18:00,66.9,52.6,29.61,West,277,5.0,7.0,60,0.00,,,0.00,Wunderground v.1.15,2013-03-21 00:18:00,
2013-03-20 17:24:00,66.6,52.7,29.61,West,265,4.0,6.0,61,0.00,,,0.00,Wunderground v.1.15,2013-03-21 00:24:00,
2013-03-20 17:30:00,66.3,52.0,29.61,WSW,243,4.0,6.0,60,0.00,,,0.00,Wunderground v.1.15,2013-03-21 00:30:00,
2013-03-20 17:35:00,65.9,52.1,29.61,WSW,247,5.0,6.0,61,0.00,,,0.00,Wunderground v.1.15,2013-03-21 00:35:00,
2013-03-20 17:41:00,65.6,51.8,29.61,West,267,4.0,5.0,61,0.00,,,0.00,Wunderground v.1.15,2013-03-21 00:41:00,
2013-03-20 17:46:00,65.4,51.6,29.61,WSW,257,4.0,7.0,61,0.00,,,0.00,Wunderground v.1.15,2013-03-21 00:46:00,
2013-03-20 17:52:00,65.1,51.8,29.61,SSW,213,4.0,5.0,62,0.00,,,0.00,Wunderground v.1.15,2013-03-21 00:52:00,
2013-03-20 17:57:00,64.8,51.9,29.61,WSW,252,4.0,5.0,63,0.00,,,0.00,Wunderground v.1.15,2013-03-21 00:57:00,
2013-03-20 18:02:00,64.4,51.1,29.61,SSW,205,4.0,5.0,62,0.00,,,0.00,Wunderground v.1.15,2013-03-21 01:02:00,
2013-03-20 18:07:00,63.8,51.4,29.61,SSW,212,4.0,6.0,64,0.00,,,0.00,Wunderground v.1.15,2013-03-21 01:07:00,
2013-03-20 18:13:00,63.3,51.3,29.61,WSW,240,3.0,5.0,65,0.00,,,0.00,Wunderground v.1.15,2013-03-21 01:13:00,
2013-03-20 18:18:00,62.9,51.0,29.61,SW,217,3.0,8.0,65,0.00,,,0.00,Wunderground v.1.15,2013-03-21 01:18:00,
2013-03-20 18:23:00,62.5,50.6,29.62,WSW,249,5.0,7.0,65,0.00,,,0.00,Wunderground v.1.15,2013-03-21 01:23:00,
2013-03-20 18:28:00,62.1,50.6,29.62,SW,225,5.0,7.0,66,0.00,,,0.00,Wunderground v.1.15,2013-03-21 01:28:00,
2013-03-20 18:33:00,61.8,50.7,29.62,SW,230,5.0,6.0,67,0.00,,,0.00,Wunderground v.1.15,2013-03-21 01:33:00,
2013-03-20 18:38:00,61.5,50.4,29.62,SW,236,4.0,6.0,67,0.00,,,0.00,Wunderground v.1.15,2013-03-21 01:38:00,
2013-03-20 18:43:00,61.2,50.6,29.62,SW,228,4.0,4.0,68,0.00,,,0.00,Wunderground v.1.15,2013-03-21 01:43:00,
2013-03-20 18:49:00,60.9,50.7,29.62,SW,230,3.0,4.0,69,0.00,,,0.00,Wunderground v.1.15,2013-03-21 01:49:00,
2013-03-20 18:55:00,60.7,50.5,29.61,SW,234,2.0,3.0,69,0.00,,,0.00,Wunderground v.1.15,2013-03-21 01:55:00,
2013-03-20 19:00:00,60.5,50.7,29.61,WSW,246,1.0,1.0,70,0.00,,,0.00,Wunderground v.1.15,2013-03-21 02:00:00,
2013-03-20 19:05:00,60.4,50.6,29.60,WSW,246,1.0,1.0,70,0.00,,,0.00,Wunderground v.1.15,2013-03-21 02:05:00,
2013-03-20 19:10:00,60.2,50.8,29.61,SW,229,0.0,0.0,71,0.00,,,0.00,Wunderground v.1.15,2013-03-21 02:10:00,
2013-03-20 19:15:00,60.0,50.9,29.60,SW,215,0.0,1.0,72,0.00,,,0.00,Wunderground v.1.15,2013-03-21 02:15:00,
2013-03-20 19:20:00,59.8,50.8,29.61,WSW,238,1.0,3.0,72,0.00,,,0.00,Wunderground v.1.15,2013-03-21 02:20:00,
2013-03-20 19:26:00,59.6,50.6,29.61,WSW,243,1.0,3.0,72,0.00,,,0.00,Wunderground v.1.15,2013-03-21 02:26:00,
2013-03-20 19:31:00,59.5,50.8,29.61,SW,217,1.0,2.0,73,0.00,,,0.00,Wunderground v.1.15,2013-03-21 02:31:00,
2013-03-20 19:37:00,59.4,50.4,29.61,WSW,240,2.0,4.0,72,0.00,,,0.00,Wunderground v.1.15,2013-03-21 02:37:00,
2013-03-20 19:43:00,59.3,50.6,29.62,SSW,206,2.0,3.0,73,0.00,,,0.00,Wunderground v.1.15,2013-03-21 02:43:00,
2013-03-20 19:49:00,59.1,50.5,29.61,WSW,248,1.0,3.0,73,0.00,,,0.00,Wunderground v.1.15,2013-03-21 02:49:00,
2013-03-20 19:54:00,59.0,50.4,29.61,SW,216,1.0,1.0,73,0.00,,,0.00,Wunderground v.1.15,2013-03-21 02:54:00,
2013-03-20 20:00:00,58.9,50.3,29.61,SSW,211,1.0,1.0,73,0.00,,,0.00,Wunderground v.1.15,2013-03-21 03:00:00,
2013-03-20 20:06:00,58.8,50.5,29.61,SW,214,2.0,3.0,74,0.00,,,0.00,Wunderground v.1.15,2013-03-21 03:06:00,
2013-03-20 20:11:00,58.6,50.3,29.61,SW,217,1.0,1.0,74,0.00,,,0.00,Wunderground v.1.15,2013-03-21 03:11:00,
2013-03-20 20:17:00,58.5,50.6,29.61,SSW,211,1.0,1.0,75,0.00,,,0.00,Wunderground v.1.15,2013-03-21 03:17:00,
2013-03-20 20:22:00,58.4,50.5,29.61,SSW,195,1.0,1.0,75,0.00,,,0.00,Wunderground v.1.15,2013-03-21 03:22:00,
2013-03-20 20:28:00,58.2,50.7,29.60,SSW,196,0.0,1.0,76,0.00,,,0.00,Wunderground v.1.15,2013-03-21 03:28:00,
2013-03-20 20:34:00,58.0,50.5,29.61,SW,219,0.0,1.0,76,0.00,,,0.00,Wunderground v.1.15,2013-03-21 03:34:00,
2013-03-20 20:39:00,57.9,50.7,29.61,SW,219,0.0,1.0,77,0.00,,,0.00,Wunderground v.1.15,2013-03-21 03:39:00,
2013-03-20 20:44:00,57.7,50.9,29.61,SW,219,0.0,0.0,78,0.00,,,0.00,Wunderground v.1.15,2013-03-21 03:44:00,
2013-03-20 20:49:00,57.5,51.0,29.61,SW,219,0.0,1.0,79,0.00,,,0.00,Wunderground v.1.15,2013-03-21 03:49:00,
2013-03-20 20:55:00,57.2,50.7,29.61,SSW,211,0.0,1.0,79,0.00,,,0.00,Wunderground v.1.15,2013-03-21 03:55:00,
2013-03-20 21:00:00,57.0,50.9,29.60,SSW,211,0.0,0.0,80,0.00,,,0.00,Wunderground v.1.15,2013-03-21 04:00:00,
2013-03-20 21:01:00,56.9,50.8,29.60,SSW,211,0.0,0.0,80,0.00,,,0.00,Wunderground v.1.15,2013-03-21 04:01:00,
2013-03-20 21:02:00,56.9,50.8,29.60,SSW,211,0.0,0.0,80,0.00,,,0.00,Wunderground v.1.15,2013-03-21 04:02:00,
2013-03-20 21:05:00,56.8,50.7,29.61,WSW,246,0.0,1.0,80,0.00,,,0.00,Wunderground v.1.15,2013-03-21 04:05:00,
2013-03-20 21:10:00,56.4,50.6,29.60,West,274,0.0,0.0,81,0.00,,,0.00,Wunderground v.1.15,2013-03-21 04:10:00,
2013-03-20 21:15:00,56.2,50.8,29.61,West,274,0.0,0.0,82,0.00,,,0.00,Wunderground v.1.15,2013-03-21 04:15:00,
2013-03-20 21:21:00,55.9,50.5,29.61,West,274,0.0,0.0,82,0.00,,,0.00,Wunderground v.1.15,2013-03-21 04:21:00,
2013-03-20 21:27:00,55.5,50.4,29.61,West,274,0.0,0.0,83,0.00,,,0.00,Wunderground v.1.15,2013-03-21 04:27:00,
2013-03-20 21:33:00,55.0,50.3,29.61,NNW,339,0.0,2.0,84,0.00,,,0.00,Wunderground v.1.15,2013-03-21 04:33:00,
2013-03-20 21:38:00,54.6,49.9,29.62,NNW,338,1.0,2.0,84,0.00,,,0.00,Wunderground v.1.15,2013-03-21 04:38:00,
2013-03-20 21:43:00,54.4,50.0,29.61,NNW,338,0.0,1.0,85,0.00,,,0.00,Wunderground v.1.15,2013-03-21 04:43:00,
2013-03-20 21:49:00,54.0,49.6,29.61,NNW,331,1.0,3.0,85,0.00,,,0.00,Wunderground v.1.15,2013-03-21 04:49:00,
2013-03-20 21:54:00,53.7,49.6,29.61,NNW,331,1.0,1.0,86,0.00,,,0.00,Wunderground v.1.15,2013-03-21 04:54:00,
2013-03-20 21:59:00,53.4,49.3,29.61,NNW,331,1.0,2.0,86,0.00,,,0.00,Wunderground v.1.15,2013-03-21 04:59:00,
2013-03-20 22:04:00,53.1,49.3,29.61,NNW,331,0.0,1.0,87,0.00,,,0.00,Wunderground v.1.15,2013-03-21 05:04:00,
2013-03-20 22:09:00,52.9,49.1,29.61,NNW,333,0.0,1.0,87,0.00,,,0.00,Wunderground v.1.15,2013-03-21 05:09:00,
2013-03-20 22:15:00,52.5,48.7,29.61,NNW,336,1.0,2.0,87,0.00,,,0.00,Wunderground v.1.15,2013-03-21 05:15:00,
2013-03-20 22:21:00,52.2,48.8,29.61,WNW,284,1.0,1.0,88,0.00,,,0.00,Wunderground v.1.15,2013-03-21 05:21:00,
2013-03-20 22:26:00,52.0,48.9,29.61,North,360,1.0,2.0,89,0.00,,,0.00,Wunderground v.1.15,2013-03-21 05:26:00,
2013-03-20 22:31:00,51.9,48.8,29.61,WNW,287,1.0,1.0,89,0.00,,,0.00,Wunderground v.1.15,2013-03-21 05:31:00,
2013-03-20 22:36:00,51.8,48.7,29.61,WNW,287,0.0,1.0,89,0.00,,,0.00,Wunderground v.1.15,2013-03-21 05:36:00,
2013-03-20 22:41:00,51.6,48.5,29.60,WNW,288,0.0,0.0,89,0.00,,,0.00,Wunderground v.1.15,2013-03-21 05:41:00,
2013-03-20 22:47:00,51.5,48.7,29.60,NNW,340,0.0,2.0,90,0.00,,,0.00,Wunderground v.1.15,2013-03-21 05:47:00,
2013-03-20 22:53:00,51.3,48.2,29.60,NW,304,0.0,0.0,89,0.00,,,0.00,Wunderground v.1.15,2013-03-21 05:53:00,
2013-03-20 22:59:00,51.0,47.9,29.60,NW,304,0.0,0.0,89,0.00,,,0.00,Wunderground v.1.15,2013-03-21 05:59:00,
2013-03-20 23:04:00,50.9,48.1,29.60,NW,304,0.0,0.0,90,0.00,,,0.00,Wunderground v.1.15,2013-03-21 06:04:00,
2013-03-20 23:10:00,50.8,48.0,29.59,North,5,0.0,1.0,90,0.00,,,0.00,Wunderground v.1.15,2013-03-21 06:10:00,
2013-03-20 23:16:00,50.4,47.6,29.59,North,350,1.0,2.0,90,0.00,,,0.00,Wunderground v.1.15,2013-03-21 06:16:00,
2013-03-20 23:21:00,50.2,47.4,29.59,North,350,0.0,1.0,90,0.00,,,0.00,Wunderground v.1.15,2013-03-21 06:21:00,
2013-03-20 23:27:00,50.0,47.2,29.59,North,350,0.0,2.0,90,0.00,,,0.00,Wunderground v.1.15,2013-03-21 06:27:00,
2013-03-20 23:33:00,49.7,47.2,29.59,North,351,0.0,1.0,91,0.00,,,0.00,Wunderground v.1.15,2013-03-21 06:33:00,
2013-03-20 23:38:00,49.6,47.1,29.59,NNW,340,0.0,1.0,91,0.00,,,0.00,Wunderground v.1.15,2013-03-21 06:38:00,
2013-03-20 23:44:00,49.4,46.9,29.59,NNW,338,0.0,1.0,91,0.00,,,0.00,Wunderground v.1.15,2013-03-21 06:44:00,
2013-03-20 23:50:00,49.4,47.2,29.60,South,176,0.0,0.0,92,0.00,,,0.00,Wunderground v.1.15,2013-03-21 06:50:00,
2013-03-20 23:56:00,49.3,47.1,29.59,SSE,155,0.0,1.0,92,0.00,,,0.00,Wunderground v.1.15,2013-03-21 06:56:00,